This is the latest recevied weather packets stored in our database for station/object WX2P-13. If no packets are shown the sender has not sent any weather packets the latest 1 day(s).
| Time | Temp. | Humidity | Pressure | Rain* | Wind** | Luminosity | Snow |
|---|---|---|---|---|---|---|---|
| 1778010624 | 29.44° C | 58% | 1015.4 hPa | 0 mm | 1.34 m/s, 321° | 147 W/m² | - |
| 1778010321 | 29.44° C | 59% | 1015.2 hPa | 0 mm | 0 m/s | 161 W/m² | - |
| 1778010016 | 29.44° C | 57% | 1015 hPa | 0 mm | 0.45 m/s, 239° | 161 W/m² | - |
| 1778009714 | 29.44° C | 56% | 1015.3 hPa | 0 mm | 0.45 m/s, 193° | 164 W/m² | - |
| 1778009411 | 29.44° C | 57% | 1015.4 hPa | 0 mm | 1.34 m/s, 231° | 189 W/m² | - |
| 1778009109 | 29.44° C | 51% | 1015.4 hPa | 0 mm | 0.45 m/s, 224° | 156 W/m² | - |
| 1778008807 | 29.44° C | 49% | 1015.5 hPa | 0 mm | 0.89 m/s, 132° | 158 W/m² | - |
| 1778008505 | 29.44° C | 50% | 1015.4 hPa | 0 mm | 0.45 m/s, 348° | 175 W/m² | - |
| 1778008203 | 28.89° C | 50% | 1015.7 hPa | 0 mm | 0.45 m/s, 95° | 134 W/m² | - |
| 1778007897 | 29.44° C | 50% | 1015.7 hPa | 0 mm | 1.34 m/s, 185° | 123 W/m² | - |
| 1778007593 | 28.89° C | 51% | 1015.9 hPa | 0 mm | 0 m/s | 127 W/m² | - |
| 1778007290 | 29.44° C | 51% | 1015.7 hPa | 0 mm | 0.45 m/s, 154° | 120 W/m² | - |
| 1778006986 | 30° C | 51% | 1015.6 hPa | 0 mm | 0.45 m/s, 72° | 118 W/m² | - |
| 1778006683 | 30° C | 50% | 1015.8 hPa | 0 mm | 0.45 m/s, 160° | 124 W/m² | - |
| 1778006379 | 29.44° C | 50% | 1015.8 hPa | 0 mm | 0 m/s | 154 W/m² | - |
| 1778006077 | 29.44° C | 50% | 1016 hPa | 0 mm | 0.45 m/s, 142° | 180 W/m² | - |
| 1778005773 | 30° C | 50% | 1015.9 hPa | 0 mm | 0.89 m/s, 180° | 176 W/m² | - |
| 1778005471 | 30.56° C | 50% | 1015.9 hPa | 0 mm | 0.45 m/s, 78° | 333 W/m² | - |
| 1778005166 | 29.44° C | 52% | 1016.2 hPa | 0 mm | 0 m/s | 423 W/m² | - |
| 1778004864 | 28.89° C | 52% | 1016.1 hPa | 0 mm | 1.34 m/s, 206° | 169 W/m² | - |
| 1778004561 | 30° C | 53% | 1016.1 hPa | 0 mm | 0.45 m/s, 133° | 139 W/m² | - |
| 1778004257 | 29.44° C | 52% | 1016 hPa | 0 mm | 0.45 m/s, 174° | 493 W/m² | - |
| 1778003953 | 30° C | 50% | 1016 hPa | 0 mm | 1.79 m/s, 192° | 174 W/m² | - |
| 1778003644 | 30° C | 51% | 1016.3 hPa | 0 mm | 1.34 m/s, 197° | 771 W/m² | - |
| 1778003341 | 30° C | 50% | 1016.3 hPa | 0 mm | 0.45 m/s, 145° | 547 W/m² | - |
* Rain latest hour (hover to see other rain measurements)
** Current wind speed in m/s (hover to see current wind gust speed)